Flag for U.S.A. Weather past 2 weeks in Lawrence, Kansas, U.S.A.

Now
49 °F

Clear.


Feels Like: 44 °F
Forecast: 38 / 47 °F
Wind: 14 mph from South

Location: Lawrence Municipal Airport

Current Time: Dec 25, 2014 at 11:12:10 PM

Latest Report: Dec 25, 2014 at 9:52 PM


Visibility: 10 mi

Pressure: 29.76 "Hg

Humidity: 48%

Dew point: 30 °F

Location of LawrenceLocation

Historic Weather in Lawrence — Graph

°F

Lawrence temperature yesterday

Maximum temperature yesterday: 36 °F (at 10:52 AM)
Minimum temperature yesterday: 27 °F (at 10:52 PM)
Average temperature yesterday: 34 °F

Past Weeks' High & Low Weather Summary

 TemperatureHumidityPressure
High62 °F (Dec 14, 1:52 PM)97% (Dec 11, 1:52 AM)30.40 "Hg (Dec 11, 1:52 AM)
Low23 °F (Dec 17, 5:52 AM)41% (Dec 25, 1:52 PM)29.44 "Hg (Dec 22, 2:52 PM)
Average39 °F83%30.03 "Hg
* Reported Dec 10 9:52 PM — Dec 25 9:52 PM, Lawrence, Weather by CustomWeather, © 2014

Note: Actual official high and low records may vary slightly from our data, if they occured in-between our weather recording intervals... More about our weather records

Advertising

Lawrence weather history for previous 24 hours

 ConditionsComfort  
Time TempWeatherWind HumidityBarometerVisibility
9:52 PM
Dec 25
49 °FClear.14 mph48%29.76 "Hg10 mi
8:52 PM49 °FClear.16 mph48%29.75 "Hg10 mi
7:52 PM50 °FClear.13 mph48%29.76 "Hg10 mi
6:52 PM49 °FClear.12 mph50%29.74 "Hg10 mi
5:52 PM50 °FClear.13 mph46%29.71 "Hg10 mi
4:52 PM51 °FSunny.21 mph42%29.70 "Hg10 mi
3:52 PM52 °FSunny.18 mph41%29.68 "Hg10 mi
2:52 PM52 °FSunny.23 mph41%29.67 "Hg10 mi
1:52 PM53 °FSunny.20 mph41%29.68 "Hg10 mi
12:52 PM51 °FSunny.23 mph42%29.70 "Hg10 mi
11:52 AM50 °FSunny.18 mph46%29.75 "Hg10 mi
10:52 AM45 °FSunny.20 mph53%29.80 "Hg10 mi
9:52 AM41 °FSunny.14 mph62%29.81 "Hg10 mi
8:52 AM35 °FSunny.13 mph75%29.79 "Hg10 mi
7:52 AM31 °FSunny.12 mph82%29.80 "Hg10 mi
6:52 AM29 °FClear.9 mph89%29.80 "Hg10 mi
5:52 AM31 °FClear.10 mph85%29.78 "Hg10 mi
4:52 AM29 °FClear.5 mph89%29.80 "Hg10 mi
3:52 AM29 °FClear.7 mph85%29.81 "Hg10 mi
2:52 AM29 °FClear.6 mph89%29.82 "Hg10 mi
1:52 AM28 °FClear.7 mph93%29.81 "Hg10 mi
12:52 AM29 °FClear.7 mph89%29.83 "Hg10 mi
11:52 PM
Dec 24
29 °FClear.6 mph89%29.83 "Hg10 mi
Weather by CustomWeather, © 2014

See weather overviewHow to use our weather pages